#timestamp,LO_Frequency,Hit,StdDev 
1503896415.8,286046999.8,N,1.4
1503896435.7,286047002.4,N,1.3
1503896455.5,286047002.3,N,1.2
1503896475.3,286047002.3,N,1.1
1503896495.2,286047002.0,N,1.1
1503896515.0,286047001.9,N,1.0
1503896515.9,286047001.9,N,1.0
1503896535.7,286047001.5,N,1.0
1503896555.6,286047001.9,N,0.9
1503896575.4,286047002.8,N,0.9
1503896595.3,286047002.8,Y,0.0
1503896615.1,286046998.5,P,1.8
1503896616.0,286046998.5,N,1.7
1503896635.8,286046998.6,N,1.5
1503896655.7,286047000.1,N,1.4
1503896675.5,286046999.8,N,1.3
1503896695.3,286047002.8,N,1.6
1503896715.2,286047002.8,N,1.8
1503896735.9,286047002.4,N,1.8
1503896755.7,286046999.9,N,1.7
1503896775.6,286047000.6,N,1.6
1503896795.4,286046999.8,N,1.6
1503896815.2,286046999.9,N,1.5
1503896835.1,286047000.0,N,1.5
1503896836.0,286047000.0,N,1.4
1503896855.8,286046999.7,N,1.4
1503896875.6,286047000.0,N,1.3
1503896895.5,286047000.9,N,1.3
1503896915.3,286047002.7,N,1.4
1503896935.1,286047002.6,N,1.4
1503896955.9,286047002.2,N,1.4
1503896975.7,286046999.7,N,1.4
1503896995.6,286047002.3,N,1.4
1503897015.4,286047002.6,N,1.4
1503897035.2,286047000.1,N,1.4
1503897055.1,286047000.1,N,1.4
1503897056.0,286047000.1,N,1.4
1503897075.8,286047000.2,N,1.4
1503897095.6,286046999.8,N,1.3
1503897115.5,286047000.0,N,1.3
1503897135.3,286047002.4,N,1.3
1503897155.1,286047002.1,N,1.3
1503897175.9,286047002.3,N,1.3
1503897195.7,286047002.7,N,1.2
1503897215.5,286047002.1,N,1.2
1503897235.4,286047004.3,Y,0.0
1503897255.2,286047002.2,P,0.6
1503897275.1,286047002.0,P,0.5
1503897276.0,286047002.0,P,0.4
1503897295.8,286047001.6,Y,0.0
1503897315.6,286047000.7,P,0.6
1503897335.5,286046998.3,P,1.5
1503897355.3,286046998.2,N,1.6
1503897375.1,286047000.7,N,1.4
1503897395.9,286047000.8,N,1.4
1503897415.7,286047000.7,N,1.3
1503897435.5,286047001.1,N,1.2
1503897455.4,286047000.6,N,1.2
1503897475.2,286047000.4,N,1.1
1503897495.0,286047000.9,N,1.1
1503897495.9,286047000.9,N,1.0
1503897515.8,286047000.9,N,1.0
1503897535.6,286047000.8,N,1.0
1503897555.4,286047000.3,N,0.9
1503897575.3,286047000.4,N,0.9
1503897595.1,286047000.5,N,0.9
1503897615.8,286047000.3,N,0.9
1503897635.7,286047000.0,N,0.8
1503897655.5,286047000.1,N,0.8
1503897675.3,286047002.8,Y,0.0
1503897695.2,286047000.0,P,0.2
1503897715.0,286047002.8,P,1.2
1503897715.9,286047002.8,N,1.3
1503897735.8,286047000.2,N,1.3
1503897755.6,286047002.7,N,1.3
1503897775.4,286047002.8,N,1.3
1503897795.3,286047002.2,N,1.2
1503897815.1,286047001.9,N,1.1
1503897816.0,286047001.9,N,1.1
1503897835.8,286047002.6,N,1.1
1503897855.7,286047002.3,N,1.0
1503897875.5,286047002.2,N,1.0
1503897895.3,286047002.4,N,1.0
1503897915.2,286047000.1,N,1.0
1503897935.9,286047000.5,N,1.0
1503897955.7,286046999.9,N,1.1
1503897975.6,286046999.8,N,1.2
1503897995.4,286047002.4,N,1.1
1503898015.2,286047002.6,N,1.1
1503898035.1,286047002.5,N,1.1
1503898036.0,286047002.5,N,1.1
1503898055.8,286047002.3,N,1.1
1503898075.6,286047002.8,N,1.1
1503898095.5,286047002.7,N,1.1
1503898115.3,286047002.3,N,1.1
1503898135.1,286047002.8,N,1.1
1503898155.9,286047000.0,N,1.1
1503898175.7,286046999.7,N,1.1
1503898195.6,286047002.7,N,1.1
1503898215.4,286047002.0,N,1.1
1503898235.2,286047002.5,N,1.1
1503898255.1,286047002.4,N,1.1
1503898256.0,286047002.4,N,1.0
1503898275.8,286046999.9,N,1.1
1503898295.6,286047002.7,N,1.1
1503898315.5,286682708.0,Y,0.0
1503898335.3,286047000.3,P,0.8
1503898355.1,286046999.9,N,0.8
1503898375.9,286047000.6,N,0.7
1503898395.7,286047000.0,N,0.7
1503898415.5,286047001.1,N,0.7
1503898435.4,286046998.4,N,1.0
1503898455.2,286047001.2,N,1.0
1503898475.0,286047001.0,N,0.9
1503898475.9,286047001.0,N,0.9
1503898495.8,286046998.1,N,1.1
1503898515.6,286047000.9,N,1.1
1503898535.4,286047000.2,N,1.0
1503898555.3,286046998.1,N,1.2
1503898575.1,286046998.2,N,1.2
1503898595.8,286046998.3,N,1.3
1503898615.7,286046998.9,N,1.2
1503898635.5,286046996.6,N,1.4
1503898655.3,286046998.9,N,1.4
1503898675.2,286047001.2,N,1.4
1503898695.9,286047000.7,N,1.4
1503898715.7,286046998.3,N,1.4
1503898735.6,286046999.3,N,1.4
1503898755.4,286046998.6,N,1.3
1503898775.2,286046998.5,N,1.3
1503898795.1,286046998.7,N,1.3
1503898796.0,286046998.7,N,1.3
1503898815.8,286046998.1,N,1.3
1503898835.6,286047001.2,N,1.3
1503898855.5,286046999.9,N,1.3
1503898875.3,286046999.7,N,1.2
1503898895.1,286047002.4,N,1.3
1503898915.9,286046999.8,N,1.3
1503898935.7,286047002.4,N,1.4
1503898955.5,286047001.5,N,1.5
1503898975.4,286047001.9,N,1.5
1503898995.2,286047002.2,N,1.5
1503899015.0,286047000.1,N,1.5
1503899015.9,286047000.1,N,1.5
1503899035.8,286047002.3,N,1.6
1503899055.6,286047002.2,N,1.6
1503899075.4,286046999.8,N,1.6
1503899095.3,286047002.5,N,1.6
1503899115.1,286047002.1,N,1.6
1503899116.0,286047002.1,N,1.6
1503899135.8,286046999.9,N,1.6
1503899155.7,286047002.4,N,1.6
1503899175.5,286047002.3,N,1.5
1503899195.3,286047002.1,N,1.5
1503899215.2,286047002.6,N,1.5
1503899235.0,286047001.5,N,1.5
1503899235.9,286047001.5,N,1.5
1503899255.7,286047002.2,N,1.5
1503899275.6,286047001.9,N,1.4
1503899295.4,286047000.5,N,1.3
1503899315.2,286047000.1,N,1.2
1503899335.1,286047001.0,N,1.2
1503899336.0,286047001.0,N,1.0
1503899355.8,286047002.3,N,1.0
1503899375.7,286047001.9,N,1.0
1503899395.5,286047002.2,N,0.9
1503899415.3,286047002.1,N,0.9
1503899435.2,286047002.3,N,0.9
1503899455.9,286047000.1,N,0.9
1503899475.7,286046999.7,N,1.0
1503899495.6,286046999.8,N,1.0
1503899515.4,286047001.0,N,1.0
1503899535.2,286047000.1,N,1.0
1503899555.1,286047002.4,N,1.0
1503899556.0,286047002.4,N,1.0
1503899575.8,286047000.2,N,1.0
1503899595.6,286047002.8,N,1.0
1503899615.5,286047000.0,N,1.0
1503899635.3,286046999.8,N,1.0
1503899655.1,286046999.9,N,1.1
1503899675.9,286047002.4,N,1.0
1503899695.7,286047002.2,N,1.0
1503899715.5,286046999.8,N,1.1
1503899735.4,286047000.0,N,1.1
1503899755.2,286047000.0,N,1.1
1503899775.1,286047000.4,N,1.1
1503899776.0,286047000.4,N,1.1
1503899795.8,286047000.0,N,1.1
1503899815.6,286047000.0,N,1.1
1503899835.5,286047000.6,N,1.1
1503899855.3,286047002.4,N,1.1
1503899875.1,286047002.8,N,1.1
1503899895.9,286047002.5,N,1.2
1503899915.7,286047000.4,N,1.1
1503899935.5,286047000.0,N,1.1
1503899955.4,286047002.2,N,1.1
1503899975.2,286047002.0,N,1.1
1503899995.0,286047002.6,N,1.2
1503899995.9,286047002.6,N,1.2
